Time,TemperatureF,DewpointF,PressureIn,WindDirection,WindDirectionDegrees,WindSpeedMPH,WindSpeedGustMPH,Humidity,HourlyPrecipIn,Conditions,Clouds,dailyrainin,SolarRadiationWatts/m^2,SoftwareType,DateUTC
2013-11-14 00:02:00,32.0,27.0,-100.00,NE,46,2.0,3.0,80,0.00,,,0.00,0.000000,,2013-11-14 07:02:00,
2013-11-14 00:11:00,32.0,27.0,-100.00,NE,46,2.0,3.0,80,0.00,,,0.00,0.000000,,2013-11-14 07:11:00,
2013-11-14 00:22:00,32.0,27.0,-100.00,NE,46,2.0,3.0,80,0.00,,,0.00,0.000000,,2013-11-14 07:22:00,
2013-11-14 00:32:00,32.0,27.0,-100.00,NE,46,2.0,3.0,80,0.00,,,0.00,0.000000,,2013-11-14 07:32:00,
2013-11-14 00:53:00,30.0,26.0,-100.00,NE,52,5.0,5.0,84,0.00,,,0.00,0.000000,,2013-11-14 07:53:00,
2013-11-14 01:01:00,30.0,26.0,-100.00,NE,52,5.0,5.0,84,0.00,,,0.00,0.000000,,2013-11-14 08:01:00,
2013-11-14 01:12:00,30.0,26.0,-100.00,NE,52,5.0,5.0,84,0.00,,,0.00,0.000000,,2013-11-14 08:12:00,
2013-11-14 01:22:00,30.0,26.0,-100.00,NE,52,5.0,5.0,84,0.00,,,0.00,0.000000,,2013-11-14 08:22:00,
2013-11-14 01:32:00,30.0,26.0,-100.00,NE,52,5.0,5.0,84,0.00,,,0.00,0.000000,,2013-11-14 08:32:00,
2013-11-14 01:53:00,30.0,27.0,-100.00,ESE,105,2.0,6.0,88,0.00,,,0.00,0.000000,,2013-11-14 08:53:00,
2013-11-14 02:02:00,30.0,27.0,-100.00,ESE,105,2.0,6.0,88,0.00,,,0.00,0.000000,,2013-11-14 09:02:00,
2013-11-14 02:11:00,30.0,27.0,-100.00,ESE,105,2.0,6.0,88,0.00,,,0.00,0.000000,,2013-11-14 09:11:00,
2013-11-14 02:22:00,30.0,27.0,-100.00,ESE,105,2.0,6.0,88,0.00,,,0.00,0.000000,,2013-11-14 09:22:00,
2013-11-14 02:33:00,30.0,27.0,-100.00,ESE,105,2.0,6.0,88,0.00,,,0.00,0.000000,,2013-11-14 09:33:00,
2013-11-14 02:53:00,28.0,25.0,-100.00,ENE,68,4.0,4.0,87,0.00,,,0.00,0.000000,,2013-11-14 09:53:00,
2013-11-14 03:03:00,28.0,25.0,-100.00,ENE,68,4.0,4.0,87,0.00,,,0.00,0.000000,,2013-11-14 10:03:00,
2013-11-14 03:12:00,28.0,25.0,-100.00,ENE,68,4.0,4.0,87,0.00,,,0.00,0.000000,,2013-11-14 10:12:00,
2013-11-14 03:23:00,28.0,25.0,-100.00,ENE,68,4.0,4.0,87,0.00,,,0.00,0.000000,,2013-11-14 10:23:00,
2013-11-14 03:33:00,28.0,25.0,-100.00,ENE,68,4.0,4.0,87,0.00,,,0.00,0.000000,,2013-11-14 10:33:00,
2013-11-14 03:52:00,30.0,27.0,-100.00,North,354,0.0,6.0,88,0.00,,,0.00,0.000000,,2013-11-14 10:52:00,
2013-11-14 04:02:00,30.0,27.0,-100.00,North,354,0.0,6.0,88,0.00,,,0.00,0.000000,,2013-11-14 11:02:00,
2013-11-14 04:11:00,30.0,27.0,-100.00,North,354,0.0,6.0,88,0.00,,,0.00,0.000000,,2013-11-14 11:11:00,
2013-11-14 04:22:00,30.0,27.0,-100.00,North,354,0.0,6.0,88,0.00,,,0.00,0.000000,,2013-11-14 11:22:00,
2013-11-14 04:32:00,30.0,27.0,-100.00,North,354,0.0,6.0,88,0.00,,,0.00,0.000000,,2013-11-14 11:32:00,
2013-11-14 04:52:00,28.0,24.0,-100.00,SSE,152,3.0,5.0,86,0.00,,,0.00,0.000000,,2013-11-14 11:52:00,
2013-11-14 05:02:00,28.0,24.0,-100.00,SSE,152,3.0,5.0,86,0.00,,,0.00,0.000000,,2013-11-14 12:02:00,
2013-11-14 05:12:00,28.0,24.0,-100.00,SSE,152,3.0,5.0,86,0.00,,,0.00,0.000000,,2013-11-14 12:12:00,
2013-11-14 05:21:00,28.0,24.0,-100.00,SSE,152,3.0,5.0,86,0.00,,,0.00,0.000000,,2013-11-14 12:21:00,
2013-11-14 05:32:00,28.0,24.0,-100.00,SSE,152,3.0,5.0,86,0.00,,,0.00,0.000000,,2013-11-14 12:32:00,
2013-11-14 05:52:00,26.0,24.0,-100.00,NE,46,3.0,4.0,92,0.00,,,0.00,0.000000,,2013-11-14 12:52:00,
2013-11-14 06:02:00,26.0,24.0,-100.00,NE,46,3.0,4.0,92,0.00,,,0.00,0.000000,,2013-11-14 13:02:00,
2013-11-14 06:11:00,26.0,24.0,-100.00,NE,46,3.0,4.0,92,0.00,,,0.00,0.000000,,2013-11-14 13:11:00,
2013-11-14 06:22:00,26.0,24.0,-100.00,NE,46,3.0,4.0,92,0.00,,,0.00,0.000000,,2013-11-14 13:22:00,
2013-11-14 06:32:00,26.0,24.0,-100.00,NE,46,3.0,4.0,92,0.00,,,0.00,0.000000,,2013-11-14 13:32:00,
2013-11-14 06:52:00,26.0,24.0,-100.00,East,99,4.0,5.0,93,0.00,,,0.00,0.000000,,2013-11-14 13:52:00,
2013-11-14 07:02:00,26.0,24.0,-100.00,East,99,4.0,5.0,93,0.00,,,0.00,0.000000,,2013-11-14 14:02:00,
2013-11-14 07:11:00,26.0,24.0,-100.00,East,99,4.0,5.0,93,0.00,,,0.00,0.000000,,2013-11-14 14:11:00,
2013-11-14 07:22:00,26.0,24.0,-100.00,East,99,4.0,5.0,93,0.00,,,0.00,0.000000,,2013-11-14 14:22:00,
2013-11-14 07:32:00,26.0,24.0,-100.00,East,99,4.0,5.0,93,0.00,,,0.00,0.000000,,2013-11-14 14:32:00,
2013-11-14 07:52:00,29.0,27.0,-100.00,East,94,4.0,5.0,93,0.00,,,0.00,16.000000,,2013-11-14 14:52:00,
2013-11-14 08:02:00,29.0,27.0,-100.00,East,94,4.0,5.0,93,0.00,,,0.00,16.000000,,2013-11-14 15:02:00,
2013-11-14 08:11:00,29.0,27.0,-100.00,East,94,4.0,5.0,93,0.00,,,0.00,16.000000,,2013-11-14 15:11:00,
2013-11-14 08:22:00,29.0,27.0,-100.00,East,94,4.0,5.0,93,0.00,,,0.00,16.000000,,2013-11-14 15:22:00,
2013-11-14 08:33:00,29.0,27.0,-100.00,East,94,4.0,5.0,93,0.00,,,0.00,16.000000,,2013-11-14 15:33:00,
2013-11-14 08:53:00,34.0,32.0,-100.00,WSW,240,2.0,5.0,92,0.00,,,0.00,55.000000,,2013-11-14 15:53:00,
2013-11-14 09:03:00,34.0,32.0,-100.00,WSW,240,2.0,5.0,92,0.00,,,0.00,55.000000,,2013-11-14 16:03:00,
2013-11-14 09:13:00,34.0,32.0,-100.00,WSW,240,2.0,5.0,92,0.00,,,0.00,55.000000,,2013-11-14 16:13:00,
2013-11-14 09:23:00,34.0,32.0,-100.00,WSW,240,2.0,5.0,92,0.00,,,0.00,55.000000,,2013-11-14 16:23:00,
2013-11-14 09:33:00,34.0,32.0,-100.00,WSW,240,2.0,5.0,92,0.00,,,0.00,55.000000,,2013-11-14 16:33:00,
2013-11-14 09:52:00,37.0,33.0,-100.00,WNW,288,4.0,6.0,85,0.00,,,0.00,161.000000,,2013-11-14 16:52:00,
2013-11-14 10:02:00,37.0,33.0,-100.00,WNW,288,4.0,6.0,85,0.00,,,0.00,161.000000,,2013-11-14 17:02:00,
2013-11-14 10:13:00,37.0,33.0,-100.00,WNW,288,4.0,6.0,85,0.00,,,0.00,161.000000,,2013-11-14 17:13:00,
2013-11-14 10:22:00,37.0,33.0,-100.00,WNW,288,4.0,6.0,85,0.00,,,0.00,161.000000,,2013-11-14 17:22:00,
2013-11-14 10:32:00,37.0,33.0,-100.00,WNW,288,4.0,6.0,85,0.00,,,0.00,161.000000,,2013-11-14 17:32:00,
2013-11-14 10:52:00,43.0,34.0,-100.00,SW,231,3.0,6.0,71,0.00,,,0.00,415.000000,,2013-11-14 17:52:00,
2013-11-14 11:02:00,43.0,34.0,-100.00,SW,231,3.0,6.0,71,0.00,,,0.00,415.000000,,2013-11-14 18:02:00,
2013-11-14 11:12:00,43.0,34.0,-100.00,SW,231,3.0,6.0,71,0.00,,,0.00,415.000000,,2013-11-14 18:12:00,
2013-11-14 11:21:00,43.0,34.0,-100.00,SW,231,3.0,6.0,71,0.00,,,0.00,415.000000,,2013-11-14 18:21:00,
2013-11-14 11:33:00,43.0,34.0,-100.00,SW,231,3.0,6.0,71,0.00,,,0.00,415.000000,,2013-11-14 18:33:00,
2013-11-14 12:11:00,47.0,34.0,-100.00,WNW,282,3.0,10.0,60,0.00,,,0.00,553.000000,,2013-11-14 19:11:00,
2013-11-14 12:21:00,47.0,34.0,-100.00,WNW,282,3.0,10.0,60,0.00,,,0.00,553.000000,,2013-11-14 19:21:00,
2013-11-14 12:32:00,47.0,34.0,-100.00,WNW,282,3.0,10.0,60,0.00,,,0.00,553.000000,,2013-11-14 19:32:00,
2013-11-14 12:52:00,51.0,33.0,-100.00,SW,233,3.0,9.0,50,0.00,,,0.00,594.000000,,2013-11-14 19:52:00,
2013-11-14 13:02:00,51.0,33.0,-100.00,SW,233,3.0,9.0,50,0.00,,,0.00,594.000000,,2013-11-14 20:02:00,
2013-11-14 13:12:00,51.0,33.0,-100.00,SW,233,3.0,9.0,50,0.00,,,0.00,594.000000,,2013-11-14 20:12:00,
2013-11-14 13:22:00,51.0,33.0,-100.00,SW,233,3.0,9.0,50,0.00,,,0.00,594.000000,,2013-11-14 20:22:00,
2013-11-14 13:32:00,51.0,33.0,-100.00,SW,233,3.0,9.0,50,0.00,,,0.00,594.000000,,2013-11-14 20:32:00,
2013-11-14 13:52:00,53.0,32.0,-100.00,SSW,201,4.0,9.0,45,0.00,,,0.00,558.000000,,2013-11-14 20:52:00,
2013-11-14 14:02:00,53.0,32.0,-100.00,SSW,201,4.0,9.0,45,0.00,,,0.00,558.000000,,2013-11-14 21:02:00,
2013-11-14 14:11:00,53.0,32.0,-100.00,SSW,201,4.0,9.0,45,0.00,,,0.00,558.000000,,2013-11-14 21:11:00,
2013-11-14 14:22:00,53.0,32.0,-100.00,SSW,201,4.0,9.0,45,0.00,,,0.00,558.000000,,2013-11-14 21:22:00,
2013-11-14 14:33:00,53.0,32.0,-100.00,SSW,201,4.0,9.0,45,0.00,,,0.00,558.000000,,2013-11-14 21:33:00,
2013-11-14 14:53:00,55.0,32.0,-100.00,WSW,251,4.0,10.0,41,0.00,,,0.00,445.000000,,2013-11-14 21:53:00,
2013-11-14 15:03:00,55.0,32.0,-100.00,WSW,251,4.0,10.0,41,0.00,,,0.00,445.000000,,2013-11-14 22:03:00,
2013-11-14 15:13:00,55.0,32.0,-100.00,WSW,251,4.0,10.0,41,0.00,,,0.00,445.000000,,2013-11-14 22:13:00,
2013-11-14 15:23:00,55.0,32.0,-100.00,WSW,251,4.0,10.0,41,0.00,,,0.00,445.000000,,2013-11-14 22:23:00,
2013-11-14 15:33:00,55.0,32.0,-100.00,WSW,251,4.0,10.0,41,0.00,,,0.00,445.000000,,2013-11-14 22:33:00,
2013-11-14 15:53:00,54.0,28.0,-100.00,SW,229,6.0,10.0,36,0.00,,,0.00,307.000000,,2013-11-14 22:53:00,
2013-11-14 16:02:00,54.0,28.0,-100.00,SW,229,6.0,10.0,36,0.00,,,0.00,307.000000,,2013-11-14 23:02:00,
2013-11-14 16:12:00,54.0,28.0,-100.00,SW,229,6.0,10.0,36,0.00,,,0.00,307.000000,,2013-11-14 23:12:00,
2013-11-14 16:22:00,54.0,28.0,-100.00,SW,229,6.0,10.0,36,0.00,,,0.00,307.000000,,2013-11-14 23:22:00,
2013-11-14 16:33:00,54.0,28.0,-100.00,SW,229,6.0,10.0,36,0.00,,,0.00,307.000000,,2013-11-14 23:33:00,
2013-11-14 16:52:00,51.0,26.0,-100.00,SSW,209,3.0,9.0,37,0.00,,,0.00,140.000000,,2013-11-14 23:52:00,
2013-11-14 17:02:00,51.0,26.0,-100.00,SSW,209,3.0,9.0,37,0.00,,,0.00,140.000000,,2013-11-15 00:02:00,
2013-11-14 17:11:00,51.0,26.0,-100.00,SSW,209,3.0,9.0,37,0.00,,,0.00,140.000000,,2013-11-15 00:11:00,
2013-11-14 17:21:00,51.0,26.0,-100.00,SSW,209,3.0,9.0,37,0.00,,,0.00,140.000000,,2013-11-15 00:21:00,
2013-11-14 17:32:00,51.0,26.0,-100.00,SSW,209,3.0,9.0,37,0.00,,,0.00,140.000000,,2013-11-15 00:32:00,
2013-11-14 17:52:00,40.0,27.0,-100.00,ESE,111,6.0,7.0,60,0.00,,,0.00,6.000000,,2013-11-15 00:52:00,
2013-11-14 18:01:00,40.0,27.0,-100.00,ESE,111,6.0,7.0,60,0.00,,,0.00,6.000000,,2013-11-15 01:01:00,
2013-11-14 18:12:00,40.0,27.0,-100.00,ESE,111,6.0,7.0,60,0.00,,,0.00,6.000000,,2013-11-15 01:12:00,
2013-11-14 18:22:00,40.0,27.0,-100.00,ESE,111,6.0,7.0,60,0.00,,,0.00,6.000000,,2013-11-15 01:22:00,
2013-11-14 18:32:00,40.0,27.0,-100.00,ESE,111,6.0,7.0,60,0.00,,,0.00,6.000000,,2013-11-15 01:32:00,
2013-11-14 18:52:00,37.0,24.0,-100.00,ESE,119,4.0,7.0,58,0.00,,,0.00,0.000000,,2013-11-15 01:52:00,
2013-11-14 19:02:00,37.0,24.0,-100.00,ESE,119,4.0,7.0,58,0.00,,,0.00,0.000000,,2013-11-15 02:02:00,
2013-11-14 19:12:00,37.0,24.0,-100.00,ESE,119,4.0,7.0,58,0.00,,,0.00,0.000000,,2013-11-15 02:12:00,
2013-11-14 19:22:00,37.0,24.0,-100.00,ESE,119,4.0,7.0,58,0.00,,,0.00,0.000000,,2013-11-15 02:22:00,
2013-11-14 19:32:00,37.0,24.0,-100.00,ESE,119,4.0,7.0,58,0.00,,,0.00,0.000000,,2013-11-15 02:32:00,
2013-11-14 19:52:00,36.0,26.0,-100.00,East,95,5.0,7.0,66,0.00,,,0.00,0.000000,,2013-11-15 02:52:00,
2013-11-14 20:02:00,36.0,26.0,-100.00,East,95,5.0,7.0,66,0.00,,,0.00,0.000000,,2013-11-15 03:02:00,
2013-11-14 20:12:00,36.0,26.0,-100.00,East,95,5.0,7.0,66,0.00,,,0.00,0.000000,,2013-11-15 03:12:00,
2013-11-14 20:22:00,36.0,26.0,-100.00,East,95,5.0,7.0,66,0.00,,,0.00,0.000000,,2013-11-15 03:22:00,
2013-11-14 20:33:00,36.0,26.0,-100.00,East,95,5.0,7.0,66,0.00,,,0.00,0.000000,,2013-11-15 03:33:00,
2013-11-14 20:54:00,33.0,24.0,-100.00,East,89,4.0,7.0,70,0.00,,,0.00,0.000000,,2013-11-15 03:54:00,
2013-11-14 21:04:00,33.0,24.0,-100.00,East,89,4.0,7.0,70,0.00,,,0.00,0.000000,,2013-11-15 04:04:00,
2013-11-14 21:14:00,33.0,24.0,-100.00,East,89,4.0,7.0,70,0.00,,,0.00,0.000000,,2013-11-15 04:14:00,
2013-11-14 21:24:00,33.0,24.0,-100.00,East,89,4.0,7.0,70,0.00,,,0.00,0.000000,,2013-11-15 04:24:00,
2013-11-14 21:33:00,33.0,24.0,-100.00,East,89,4.0,7.0,70,0.00,,,0.00,0.000000,,2013-11-15 04:33:00,
2013-11-14 21:53:00,33.0,23.0,-100.00,ESE,105,4.0,6.0,65,0.00,,,0.00,0.000000,,2013-11-15 04:53:00,
2013-11-14 22:03:00,33.0,23.0,-100.00,ESE,105,4.0,6.0,65,0.00,,,0.00,0.000000,,2013-11-15 05:03:00,
2013-11-14 22:13:00,33.0,23.0,-100.00,ESE,105,4.0,6.0,65,0.00,,,0.00,0.000000,,2013-11-15 05:13:00,
2013-11-14 22:22:00,33.0,23.0,-100.00,ESE,105,4.0,6.0,65,0.00,,,0.00,0.000000,,2013-11-15 05:22:00,
2013-11-14 22:33:00,33.0,23.0,-100.00,ESE,105,4.0,6.0,65,0.00,,,0.00,0.000000,,2013-11-15 05:33:00,
2013-11-14 22:53:00,31.0,23.0,-100.00,ESE,111,7.0,8.0,72,0.00,,,0.00,0.000000,,2013-11-15 05:53:00,
2013-11-14 23:02:00,31.0,23.0,-100.00,ESE,111,7.0,8.0,72,0.00,,,0.00,0.000000,,2013-11-15 06:02:00,
2013-11-14 23:12:00,31.0,23.0,-100.00,ESE,111,7.0,8.0,72,0.00,,,0.00,0.000000,,2013-11-15 06:12:00,
2013-11-14 23:23:00,31.0,23.0,-100.00,ESE,111,7.0,8.0,72,0.00,,,0.00,0.000000,,2013-11-15 06:23:00,
2013-11-14 23:33:00,31.0,23.0,-100.00,ESE,111,7.0,8.0,72,0.00,,,0.00,0.000000,,2013-11-15 06:33:00,
2013-11-14 23:53:00,33.0,23.0,-100.00,ESE,103,6.0,8.0,65,0.00,,,0.00,0.000000,,2013-11-15 06:53:00,